EW3602 Cerritos Beach MX current weather conditions

sailwx.info

Wind from 139

Air temperature 17.8° C
Dewpoint 17.1° C

Last reported at 2020-May-31 13:01 UTC.
Time now 2020-May-31 13:50 UTC

Location: N 23°20' W 110°11'.
View on Google Maps.

See reports from other nearby stations

  
Tides and Currents Weather Stations Pressure Air Temp Water Temp Dewpoint Dewpoint Depression Visibility Wind Speed Wind Dir Waves Ship Positions
date/time (UTC)wind fromknots sea level pressurealtimeterstation pressurevisibilityair tempwater tempwave heightnotes
2020-May-31 13:01 139 17.8
2020-May-31 12:46 137 17.8
2020-May-31 12:31 132 17.8
2020-May-31 12:15 132 17.8
2020-May-31 12:01 131 17.8
2020-May-31 11:46 132 17.8
2020-May-31 11:31 131 17.8
2020-May-31 11:17 178 17.8
2020-May-31 11:01 178 17.8
2020-May-31 10:46 188 17.8
2020-May-31 10:31 182 17.8
2020-May-31 10:16 185 17.8
2020-May-31 10:01 193 17.8
2020-May-31 09:46 200 17.8
2020-May-31 09:31 270 17.8
2020-May-31 09:15 276 0 gusting 2 17.8
2020-May-31 09:02 276 17.8
2020-May-31 08:46 276 17.8
2020-May-31 08:31 320 17.8
2020-May-31 08:16 302 0 gusting 3 17.8
2020-May-31 08:01 318 18.3
2020-May-31 07:46 053 0 gusting 4 18.3
2020-May-31 07:30 032 0 gusting 2 18.3
2020-May-31 07:16 330 1 gusting 3 18.3
2020-May-31 07:00 308 18.3
2020-May-31 06:46 331 1 gusting 3 18.3
2020-May-31 06:30 323 1 gusting 3 18.3
2020-May-31 06:15 295 2 gusting 6 18.3
2020-May-31 06:00 313 2 gusting 5 18.3
2020-May-31 05:45 294 0 gusting 4 18.3
2020-May-31 05:31 326 4 gusting 6 18.3
2020-May-31 05:15 053 1 gusting 6 18.3
2020-May-31 05:00 020 0 gusting 4 18.3
2020-May-31 04:45 032 18.3
2020-May-31 04:30 030 0 gusting 4 18.3
2020-May-31 04:15 031 1 gusting 5 18.3
2020-May-31 04:00 046 1 gusting 6 18.3
2020-May-31 03:45 004 2 gusting 6 18.9
2020-May-31 03:30 342 2 gusting 6 18.9
2020-May-31 03:15 321 2 gusting 6 18.9
2020-May-31 03:00 333 4 gusting 7 18.9
2020-May-31 02:45 327 3 gusting 8 18.9
2020-May-31 02:30 340 5 gusting 6 18.9
2020-May-31 02:15 326 4 gusting 8 18.9
2020-May-31 02:00 330 6 gusting 9 18.9
2020-May-31 01:46 359 4 gusting 8 19.4
2020-May-31 01:30 281 3 gusting 7 19.4
2020-May-31 01:15 313 3 gusting 8 20.0
2020-May-31 01:00 331 2 gusting 8 20.0
2020-May-31 00:45 330 5 gusting 9 20.0
2020-May-31 00:30 290 5 gusting 8 20.0
2020-May-31 00:15 284 4 gusting 9 20.0
2020-May-31 00:00 020 5 gusting 9 20.0
2020-May-30 23:45 279 3 gusting 8 19.4
2020-May-30 23:30 293 5 gusting 8 19.4
2020-May-30 23:15 299 6 gusting 8 19.4
2020-May-30 23:00 268 4 gusting 8 20.0
2020-May-30 22:46 301 4 gusting 9 19.4
2020-May-30 22:32 302 4 gusting 8 19.4
2020-May-30 22:17 311 6 gusting 9 19.4
2020-May-30 22:01 311 4 gusting 11 20.0
2020-May-30 21:46 289 6 gusting 10 19.4
2020-May-30 21:31 304 7 gusting 11 19.4
2020-May-30 21:17 286 6 gusting 9 20.0
2020-May-30 21:02 315 6 gusting 9 20.0
2020-May-30 20:47 294 4 gusting 10 20.0
2020-May-30 20:31 305 6 gusting 12 19.4
2020-May-30 20:16 301 5 gusting 9 20.0
2020-May-30 20:01 323 6 gusting 10 19.4
2020-May-30 19:46 283 8 gusting 11 19.4
2020-May-30 19:31 322 6 gusting 10 19.4
2020-May-30 19:16 274 6 gusting 10 19.4
2020-May-30 19:01 324 7 gusting 9 18.9
2020-May-30 18:46 300 6 gusting 9 18.9
2020-May-30 18:31 309 7 gusting 9 18.9
2020-May-30 18:16 296 6 gusting 9 19.4
2020-May-30 18:01 320 4 gusting 10 19.4
2020-May-30 17:45 314 6 gusting 10 18.9
2020-May-30 17:30 297 3 gusting 11 19.4
2020-May-30 17:16 289 6 gusting 9 18.9
2020-May-30 17:00 323 4 gusting 9 18.9
2020-May-30 16:45 299 7 gusting 10 18.3
2020-May-30 16:30 280 5 gusting 6 18.3
2020-May-30 16:15 312 5 gusting 8 18.3
2020-May-30 16:00 288 4 gusting 9 18.3
2020-May-30 15:45 345 3 gusting 6 18.3
2020-May-30 15:30 341 17.8
2020-May-30 15:15 327 4 gusting 7 17.8
2020-May-30 15:00 290 2 gusting 6 17.8
2020-May-30 14:45 342 4 gusting 7 17.8
2020-May-30 14:30 341 1 gusting 6 17.2
2020-May-30 14:15 316 0 gusting 7 17.2
2020-May-30 14:00 270 17.2
2020-May-30 13:45 278 17.2
2020-May-30 13:30 322 17.2
2020-May-30 13:15 287 0 gusting 2 16.7
2020-May-30 13:00 051 16.7
2020-May-30 12:45 051 16.7
2020-May-30 12:30 051 16.7
2020-May-30 12:15 027 16.7
2020-May-30 12:00 303 16.7
2020-May-30 11:45 274 16.7
2020-May-30 03:18 337 18.3
2020-May-30 03:01 340 3 gusting 7 18.3
2020-May-30 02:45 340 5 gusting 7 18.3
2020-May-30 02:31 339 4 gusting 8 18.3
2020-May-30 02:16 316 5 gusting 10 18.9
2020-May-30 02:01 326 6 gusting 9 18.9
2020-May-30 01:45 341 5 gusting 7 18.9
2020-May-30 01:31 314 6 gusting 13 19.4
2020-May-30 01:16 354 7 gusting 12 19.4
2020-May-30 01:00 307 7 gusting 13 19.4
2020-May-30 00:45 310 7 gusting 13 20.0
2020-May-30 00:30 328 6 gusting 14 20.0
2020-May-30 00:15 342 3 gusting 8 20.0
2020-May-30 00:00 287 4 gusting 11 20.0
2020-May-29 23:46 278 5 gusting 10 20.0
2020-May-29 23:30 322 5 gusting 9 20.0
2020-May-29 23:15 314 7 gusting 11 19.4
2020-May-29 23:00 295 6 gusting 10 19.4
2020-May-29 22:45 304 6 gusting 10 19.4
2020-May-29 22:31 315 6 gusting 10 20.0
2020-May-29 22:19 347 5 gusting 11 20.0
2020-May-29 22:02 317 6 gusting 10 20.0
2020-May-29 21:47 302 6 gusting 11 20.0
2020-May-29 21:31 326 6 gusting 12 20.0
2020-May-29 21:17 285 7 gusting 11 20.0
2020-May-29 21:01 284 7 gusting 12 20.0
2020-May-29 20:46 290 7 gusting 12 19.4
2020-May-29 20:31 288 7 gusting 12 19.4
2020-May-29 20:16 319 6 gusting 12 19.4
2020-May-29 20:01 300 7 gusting 11 19.4
2020-May-29 19:45 328 7 gusting 13 19.4
2020-May-29 19:31 298 9 gusting 13 19.4
2020-May-29 19:15 295 10 gusting 13 19.4
2020-May-29 19:01 269 9 gusting 13 19.4
2020-May-29 18:45 307 7 gusting 11 19.4
2020-May-29 18:31 290 7 gusting 11 18.9
2020-May-29 18:15 281 5 gusting 11 20.0
2020-May-29 18:00 302 4 gusting 10 20.0
2020-May-29 17:45 290 5 gusting 10 19.4
2020-May-29 17:31 262 4 gusting 9 20.0
2020-May-29 17:15 293 4 gusting 9 19.4
2020-May-29 17:01 307 5 gusting 10 18.3
2020-May-29 14:00 288 1 gusting 5 17.2
2020-May-29 13:45 290 2 gusting 6 17.2
2020-May-29 13:30 288 3 gusting 5 17.2
2020-May-29 13:15 345 1 gusting 3 17.8
2020-May-29 13:00 314 0 gusting 4 17.2